APSTAR 6C

Last updated on Sept. 26, 2020, 5:40 a.m. UTC

1 43450U 18041A   20269.90473655 -.00000341  00000-0  00000-0 0  9997
2 43450   0.0159 236.3445 0002724 227.3813   1.1702  1.00270932  8880
UTC
Height (km)
Latitude
Longitude
Inclination
Orbital Period
UTC large
Height (km)
Speed (km/s)
/
Latitude / Longitude
Inclination (degrees)
Orbital Period (minutes)
Azimuth
Elevation
Range (km)
Doppler Factor
iOS Compass Heading
iOS Angle

Next 30 passes for location: Hong Kong

Rise time Rise Azimuth (degrees) Set time Set Azimuth (degrees) Duration Max altitude (degrees)

No matching passes for this satellites